SWR7PE LSZH-EDDM

Flight info

Callsign SWR7PE
Flight time N/A
Altitude 26000
Route DEGES2X DEGES Z6 NUNRI T103 BETOS BETOS1A/08R
Aircraft A320/M-SDE3FGHIRWY/LB1

Departure

Time N/A
Airport Zürich Airport (LSZH)

Arrival

Time 2026-04-30 17:49
Airport Munich Airport (EDDM)
Time Latitude Longitude Altitude Speed Heading
2026-04-30 17:39 48.06261 11.09051 10875 ft 337 kts 46°
2026-04-30 17:41 48.17606 11.26225 6956 ft 274 kts 47°
2026-04-30 17:42 48.20222 11.30198 6257 ft 259 kts 47°
2026-04-30 17:42 48.23911 11.35727 5197 ft 240 kts 47°
2026-04-30 17:43 48.26191 11.39217 4549 ft 228 kts 49°
2026-04-30 17:44 48.29414 11.44175 4033 ft 217 kts 48°
2026-04-30 17:44 48.31971 11.48979 4039 ft 186 kts 75°
2026-04-30 17:46 48.32805 11.59003 3617 ft 179 kts 82°
2026-04-30 17:47 48.33271 11.65034 2852 ft 119 kts 83°
2026-04-30 17:48 48.33675 11.70109 2196 ft 121 kts 85°
2026-04-30 17:48 48.33969 11.73848 1702 ft 119 kts 85°
2026-04-30 17:49 48.34243 11.77327 1486 ft 30 kts 82°
2026-04-30 17:50 48.34467 11.77843 1486 ft 0 kts 52°
2026-04-30 17:51 48.34582 11.78278 1483 ft 22 kts 83°
2026-04-30 17:52 48.34641 11.79078 1477 ft 27 kts 77°
2026-04-30 17:53 48.34848 11.79698 1476 ft 13 kts 353°
2026-04-30 17:54 48.35112 11.79853 1476 ft 15 kts 83°
2026-04-30 17:55 48.35305 11.80168 1477 ft 10 kts 353°
2026-04-30 17:56 48.35574 11.80112 1486 ft 11 kts 354°
2026-04-30 17:57 48.35667 11.79965 1486 ft 8 kts 263°
2026-04-30 17:58 48.35665 11.79938 1486 ft 0 kts 263°